Location: Bauerbach
(50.4985°N, 10.3912°E)
Time: 01:32:20
(UTC+00:00)

Cosmos 1408 Rocket - Pass Details

Date: 13 January 2026
Orbit: 593 x 623 km, 82.6° (Epoch: 6 February)

Event Time Altitude Azimuth Distance (km) Brightness Sun altitude
Rises 05:50:10 0° 210° (SSW) 2,865 6.9 -12.9°
Reaches altitude 10° 05:52:31 10° 218° (SW) 1,960 5.9 -12.5°
Maximum altitude 05:56:34 38° 287° (WNW) 941 4.0 -11.9°
Drops below altitude 10° 06:00:36 10° 356° (N) 1,958 5.9 -11.3°
Sets 06:02:57 0° 5° (N) 2,861 6.8 -11.0°
